Regional Weather Roundup
Issued by NWS

Home | Current Version | Previous Version | Graphics & Text | Print | Product List | Glossary On
Versions: 1 2 3 4 5 6 7 8 9 10 11 12 13 14 15 16 17 18 19 20 21 22 23 24 25 26 27 28 29 30 31 32 33 34 35 36 37 38 39 40 41 42 43 44 45 46 47 48 49 50
000
ASUS43 KMPX 192201
RWRMN
WEATHER ROUNDUP FOR MINNESOTA
NATIONAL WEATHER SERVICE TWIN CITIES/CHANHASSEN MN
400 PM CST THU JAN 19 2017


NOTE: "FAIR" INDICATES FEW OR NO CLOUDS BELOW 12,000 FEET WITH NO
SIGNIFICANT WEATHER AND/OR OBSTRUCTIONS TO VISIBILITY. N/A MEANS
CURRENT SKY AND/OR WEATHER CONDITIONS ARE NOT AVAILABLE.

MNZ060>063-068>070-192300-
   Twin Cities Metro

CITY           SKY/WX    TMP DP  RH WIND       PRES   REMARKS
TWIN CITIES    CLOUDY    37  31  78 S7        29.75F
ST PAUL        CLOUDY    36  33  89 SE8       29.77S
CRYSTAL        CLOUDY    37  30  75 SE8       29.73S
BLAINE         MOCLDY    37  34  87 SE9       29.74S
LAKEVILLE        N/A     34  34 100 SE5       29.75S WCI  30
EDEN PRAIRIE   CLOUDY    37  32  82 E7        29.73S
SOUTH ST PAUL  CLOUDY    37  33  85 SE3       29.76S
LAKE ELMO      CLOUDY    36  32  87 SE5       29.77R
$$
MNZ001>005-007-008-013>017-022>024-027-028-192300-
   Northwest Minnesota

CITY           SKY/WX    TMP DP  RH WIND       PRES   REMARKS
BEMIDJI        CLEAR     43  37  78 S7        29.61S
HALLOCK        CLOUDY    30  28  93 S18       29.55R FOG     WCI  18
ROSEAU         CLEAR     37  34  87 S7        29.56S
WARROAD        CLEAR     41  36  81 S5        29.57R
THIEF RVR FALL CLEAR     38  33  82 S10       29.58S
CROOKSTON      CLEAR     32  30  93 S9        29.59S FOG     WCI  24
FOSSTON        CLEAR     41  34  75 S10       29.59S
DETROIT LAKES  CLEAR     41  36  81 S9        29.62R
MOORHEAD       CLEAR     36  34  93 S16       29.60R
PARK RAPIDS    CLEAR     41  33  73 S8        29.63R
MAHNOMEN       FAIR      40  35  84 S8        29.59R
$$
MNZ006-009>011-018-025>026-192300-
   North Central Minnesota

CITY           SKY/WX    TMP DP  RH WIND       PRES   REMARKS
BAUDETTE       CLEAR     37  31  78 S12       29.59R
FLAG ISLAND    CLOUDY    30  28  93 S13       29.57R WCI  20
INTL FALLS     CLEAR     39  33  79 S3        29.63R
WASKISH        CLEAR     41  36  81 S5        29.62R
BIG FORK       CLEAR     41  36  81 S8        29.65R
LONGVILLE      CLEAR     45  37  76 S8        29.66R
GRAND RAPIDS   CLEAR     40  36  86 SE7       29.69S
CRANE LAKE     CLEAR     39  36  87 CALM      29.68S
ORR            CLEAR     39  34  81 CALM      29.64S
COOK           CLOUDY    37  36  93 S6        29.68R
WALKER         FAIR      42  36  77 SE6       29.64R
$$
MNZ012-019>021-037-192300-
   Northeast Minnesota

CITY           SKY/WX    TMP DP  RH WIND       PRES   REMARKS
DULUTH         CLEAR     43  35  73 S7        29.71R
ELY            CLEAR     43  37  81 SW8       29.69R
HIBBING        FOG       35  35 100 S5        29.70R VSB 3/4 WCI  31
EVELETH        CLOUDY    37  37  97 CALM      29.71S FOG
DULUTH HARBOR  CLEAR     36  34  93 CALM      29.75R FOG
TWO HARBORS    CLEAR     46  37  71 S3        29.71R
SILVER BAY     CLEAR     43  36  75 E3        29.72R
G MARAIS ARPRT FOG       32  28  86 SW3       29.72S VSB<1/4
$$
MNZ029>031-032-039>041-046>048-054>057-064-192300-
   West Central Minnesota

CITY           SKY/WX    TMP DP  RH WIND       PRES   REMARKS
FERGUS FALLS   CLEAR     37  36  93 S16       29.65S
WHEATON        CLEAR     43  39  87 SE15      29.63R
MORRIS         CLOUDY    36  34  93 SE14      29.64R FOG
ALEXANDRIA     MOCLDY    38  35  89 SE9       29.66R
ELBOW LAKE     FAIR      36  34  92 E14       29.64R FOG
WADENA         CLEAR     39  34  81 S8        29.65R
GLENWOOD       CLOUDY    36  34  93 SE10      29.68R FOG
APPLETON       FOG       37  36  93 SE9       29.65S VSB 1/2
BENSON         CLOUDY    37  34  87 S9          N/A
ORTONVILLE     CLOUDY    36  32  87 SE9       29.63R FOG
MADISON        CLOUDY    39  37  93 S8        29.64R FOG
WILLMAR        CLOUDY    36  36 100 SE12      29.69S FOG
$$
MNZ033>034-036-042>043-049>051-058-059-192300-
   Central Minnesota

CITY           SKY/WX    TMP DP  RH WIND       PRES   REMARKS
ST CLOUD       CLEAR     39  34  82 S10       29.71R
SAUK CENTRE    FOG       33  33  99 SE10      29.69R VSB 1/4 WCI  25
PAYNESVILLE    CLOUDY    35  35 100 SE5       29.71R FOG     WCI  31
AITKIN         CLEAR     45  34  65 SE6       29.69R
PINE RIVER     CLEAR     43  36  75 SE6       29.71R
BRAINERD       CLEAR     40  34  79 S12       29.70R HAZE
STAPLES        CLEAR     41  34  75 SE7       29.67R
LONG PRAIRIE   CLOUDY    34  32  93 SE7       29.69R FOG     WCI  28
LITTLE FALLS   CLEAR     37  34  87 S7        29.71R
LITCHFIELD     PTCLDY    39  36  87 SE3       29.71S
BUFFALO        PTCLDY    39  33  76 SE5       29.73S
MAPLE LAKE     PTCLDY    40  35  81 SE6       29.72S
HUTCHINSON     CLOUDY    37  35  93 SE7       29.72R
$$
MNZ037-044-045-052-053-192300-
   East Central Minnesota

CITY           SKY/WX    TMP DP  RH WIND       PRES   REMARKS
PRINCETON      MOCLDY    45  36  70 SE6       29.73R
MORA           CLEAR     43  32  65 S3        29.74R
CAMBRIDGE      PTCLDY    43  32  65 SE6       29.72R
RUSH CITY      CLEAR     41  32  70 S8        29.74R
MOOSE LAKE     CLEAR     45  32  61 S5        29.70S
HINCKLEY       FAIR      41  34  75 S5        29.73R
CLOQUET        CLEAR     46  34  61 S7        29.72R
MCGREGOR       CLEAR     45  36  70 S7        29.71R
$$
MNZ071>073-080-081-089-090-097-098-192300-
   Southwest Minnesota

CITY           SKY/WX    TMP DP  RH WIND       PRES   REMARKS
MONTEVIDEO     CLOUDY    37  37 100 S6        29.68R FOG
GRANITE FALLS  FOG       38  37  96 SE10      29.68S VSB 3/4
CANBY          CLOUDY    39  38  94 SW8G17    29.64R FOG
MARSHALL       CLOUDY    40  38  93 S14       29.65R FOG
REDWOOD FALLS  CLOUDY    37  34  89 SE12      29.68S FOG
OLIVIA         CLOUDY    36  34  93 SE6       29.68S FOG
PIPESTONE      DRZL/FOG  36  36 100 SW6       29.64R VSB<1/4
WINDOM         PTSUNNY   37  36  93 SE8       29.68S FOG
WORTHINGTON    FOG       36  36 100 S8        29.67  VSB 1/4
JACKSON        CLOUDY    34  34 100 SE8       29.69R FOG     WCI  27
TRACY          FOG       39  38  99 S13       29.65S VSB 3/4
SLAYTON        FOG       36  36 100 SE10      29.66S VSB<1/4
$$
MNZ065>067-074>077-082>085-091>093-192300-
   South Central Minnesota

CITY           SKY/WX    TMP DP  RH WIND       PRES   REMARKS
MANKATO        MOCLDY    37  34  89 SE8       29.73
NEW ULM          N/A     36  34  93 SE9       29.70F
ST JAMES       MOCLDY    37  36  93 SE8       29.72R
FAIRMONT       CLOUDY    37  35  92 SE9       29.71S
GLENCOE        CLOUDY    38  36  92 SE7       29.72R
FARIBAULT        N/A     37  34  87 SE3       29.75S
OWATONNA       CLOUDY    37  30  75 SE9       29.73S
WASECA         CLOUDY    34  32  93 SE10      29.74S WCI  26
ALBERT LEA     CLOUDY    36  34  93 SE6       29.73S
$$
MNZ078>079-086>088-094>096-192300-
   Southeast Minnesota

CITY           SKY/WX    TMP DP  RH WIND       PRES   REMARKS
ROCHESTER      CLOUDY    34  32  92 SE12      29.76S WCI  25
RED WING       CLOUDY    37  32  81 SE7       29.78R
STANTON        CLOUDY    38  33  82 SE3       29.75R
DODGE CENTER   PTCLDY    34  32  93 SE8       29.74S WCI  27
WINONA         CLOUDY    36  32  87 SE8       29.81S
AUSTIN         CLOUDY    36  32  87 SE7       29.75S
PRESTON        CLOUDY    35  32  88 SE7       29.77F WCI  29
$$
ABBREVIATIONS USED IN REMARKS
   TC - TEMPERATURES IN CELSIUS
  WCI - WIND CHILL INDEX
   HX - HEAT INDEX
  VSB - VISIBILITY
$$




USA.gov is the U.S. government's official web portal to all federal, state and local government web resources and services.